Volver al catálogo

COSMOS 706

ActivoMilitarHEO
NORAD 7625·PAYLOAD·🇷🇺 Russia

Lanzado Jan 30, 1975 desde Plesetsk Cosmodrome

Loading…

Próximos Pases (próximas 24 horas)

TLE

ActualizadoSource: Space-Track

Época: Sep 14, 2026, 02:00 UTC

1 07625U 75007A   26257.08394737 -.00000868  00000-0  00000-0 0  9995
2 07625  63.9087 144.3210 6840170   3.2989 359.7342  2.00476302238221

Sigue COSMOS 706 en tiempo real con AllMySat

Download on the App Store